Regional Weather Roundup
Issued by NWS

Home | Current Version | Previous Version | Graphics & Text | Print | Product List | Glossary On
Versions: 1 2 3 4 5 6 7 8 9 10 11 12 13 14 15 16 17 18 19 20 21 22 23 24 25 26 27 28 29 30 31 32 33 34 35 36 37 38 39 40 41 42 43 44 45 46 47 48 49 50
000
ASUS43 KMPX 301601
RWRMN
WEATHER ROUNDUP FOR MINNESOTA
NATIONAL WEATHER SERVICE TWIN CITIES/CHANHASSEN MN
1100 AM CDT TUE SEP 30 2014


NOTE: "FAIR" INDICATES FEW OR NO CLOUDS BELOW 12,000 FEET WITH NO
SIGNIFICANT WEATHER AND/OR OBSTRUCTIONS TO VISIBILITY. N/A MEANS
CURRENT SKY AND/OR WEATHER CONDITIONS ARE NOT AVAILABLE.

MNZ060>063-068>070-301700-
   Twin Cities Metro

CITY           SKY/WX    TMP DP  RH WIND       PRES   REMARKS
TWIN CITIES    PTSUNNY   47  40  76 E13       30.04F
ST PAUL        CLOUDY    47  41  80 E13       30.06F
CRYSTAL        CLOUDY    47  39  74 E12       30.03F
BLAINE         CLOUDY    48  43  81 E12G17    30.04F
LAKEVILLE      CLOUDY    46  41  81 E12       30.03F
EDEN PRAIRIE   CLOUDY    47  41  80 E13       30.01F
SOUTH ST PAUL  MOSUNNY   46  39  76 SE7       30.05S
LAKE ELMO      CLOUDY    45  41  87 E12       30.06F
$$
MNZ001>005-007-008-013>017-022>024-027-028-301700-
   Northwest Minnesota

CITY           SKY/WX    TMP DP  RH WIND       PRES   REMARKS
BEMIDJI        CLOUDY    45  41  85 SE14      29.99F
HALLOCK        MOSUNNY   52  45  76 SE16      29.91F
ROSEAU         CLOUDY    48  43  81 SE13      29.98F
WARROAD        CLOUDY    46  43  87 SE12      30.00F
THIEF RVR FALL PTSUNNY   48  43  81 E13       29.93F
CROOKSTON      SUNNY     52  45  76 SE12G20   29.91F
FOSSTON        SUNNY     52  45  76 SE8G17    29.94F
DETROIT LAKES  SUNNY     48  41  76 SE18      29.92F
PARK RAPIDS    CLOUDY    44  40  85 SE17      29.98F
MAHNOMEN       FAIR      48  40  75 SE15      29.92F
$$
MNZ006-009>011-018-025>026-301700-
   North Central Minnesota

CITY           SKY/WX    TMP DP  RH WIND       PRES   REMARKS
BAUDETTE       CLOUDY    44  39  82 SE10      30.02F
FLAG ISLAND    CLOUDY    45  43  93 S15       30.01F
INTL FALLS     CLOUDY    44  40  85 SE9       30.06F
WASKISH        CLOUDY    46  43  87 E5        30.01F
BIG FORK       CLOUDY    45  39  81 SE9       30.06F
LONGVILLE      CLOUDY    43  39  87 E8        30.02F
GRAND RAPIDS   CLOUDY    43  37  81 E9G16     30.06F
CRANE LAKE     CLOUDY    41  39  93 S3        30.11S
ORR            CLOUDY    41  36  81 SE6       30.06F
COOK           CLOUDY    43  39  87 SE6       30.09F
WALKER         CLOUDY    42  39  90 E9        30.00F
$$
MNZ012-019>021-037-301700-
   Northeast Minnesota

CITY           SKY/WX    TMP DP  RH WIND       PRES   REMARKS
DULUTH         CLOUDY    44  39  82 E16       30.09S
ELY            CLOUDY    43  37  81 SE9       30.10F
HIBBING        CLOUDY    45  39  79 SE12      30.09S
EVELETH        CLOUDY    43  37  81 SE10      30.10S
DULUTH HARBOR  CLOUDY    46  43  87 E13       30.13S
TWO HARBORS    CLOUDY    45  37  76 E14       30.10F
SILVER BAY     MOSUNNY   43  41  93 NE10      30.11S
GRAND MARAIS     N/A     48  36  63 E10       30.16F
G MARAIS ARPRT SUNNY     46  34  61 E7        30.13F
$$
MNZ029>031-032-039>041-046>048-054>057-064-301700-
   West Central Minnesota

CITY           SKY/WX    TMP DP  RH WIND       PRES   REMARKS
FERGUS FALLS   MOSUNNY   48  39  71 SE17G25   29.90F
WHEATON        PTSUNNY   46  43  87 E20G26    29.89F
MORRIS         PTSUNNY   48  43  81 SE22      29.90S
ALEXANDRIA     CLOUDY    44  41  89 E17G25    29.96F
ELBOW LAKE     FAIR      46  41  82 SE18G25   29.90F
WADENA         PTSUNNY   45  39  81 E15       29.96F
GLENWOOD       MOSUNNY   46  43  87 E17G23    29.95F
APPLETON       CLOUDY    48  43  81 SE22G30   29.91F
BENSON         PTSUNNY   48  43  81 SE14G22   29.94S
ORTONVILLE     CLOUDY    46  43  87 SE13G23   29.89S
MADISON        CLOUDY    50  45  81 SE17      29.90F
WILLMAR        FAIR      48  43  81 E18G25    29.96F
$$
MNZ033>034-036-042>043-049>051-058-059-301700-
   Central Minnesota

CITY           SKY/WX    TMP DP  RH WIND       PRES   REMARKS
ST CLOUD       PTSUNNY   48  40  73 SE10      30.02F
SAUK CENTRE    CLOUDY    44  41  90 E13G22    29.98F
PAYNESVILLE    CLOUDY    45  40  85 NE13      29.98F
AITKIN         CLOUDY    46  39  76 E9        30.04F
PINE RIVER     CLOUDY    43  39  87 E12G21    30.05F
BRAINERD       CLOUDY    44  41  89 MISG      30.03F
STAPLES        PTSUNNY   45  39  81 SE12G17   29.99F
LONG PRAIRIE   CLOUDY    45  41  87 E17       29.98F
LITTLE FALLS   CLOUDY    43  37  81 E8        30.02S
LITCHFIELD     CLOUDY    48  45  87 E16       29.99F
BUFFALO        CLOUDY    47  40  75 E13       30.02F
MAPLE LAKE     CLOUDY    47  43  85 E9        30.02F
$$
MNZ037-044-045-052-053-301700-
   East Central Minnesota

CITY           SKY/WX    TMP DP  RH WIND       PRES   REMARKS
PRINCETON      CLOUDY    45  39  81 E12       30.04F
MORA           CLOUDY    43  37  81 E7        30.08F
CAMBRIDGE      CLOUDY    46  37  71 E9        30.03F
RUSH CITY      LGT RAIN  43  39  84 SE6       30.08F
MOOSE LAKE     CLOUDY    43  37  81 E3        30.07S
HINCKLEY       CLOUDY    43  39  87 E7        30.08F
CLOQUET        CLOUDY    45  39  81 E10       30.09S
MCGREGOR       CLOUDY    43  39  87 E9G16     30.07F
$$
MNZ071>073-080-081-089-090-097-098-301700-
   Southwest Minnesota

CITY           SKY/WX    TMP DP  RH WIND       PRES   REMARKS
MONTEVIDEO     CLOUDY    46  43  87 SE17      29.94F
GRANITE FALLS  CLOUDY    46  42  89 E15G23    29.94F
CANBY          CLOUDY    47  45  90 SE15G24   29.90S
MARSHALL       CLOUDY    48  43  81 SE18G24   29.89F
REDWOOD FALLS  CLOUDY    47  43  86 E13       29.95F
OLIVIA         CLOUDY    46  41  81 SE16G25   29.95F
PIPESTONE      CLOUDY    54  52  94 SE14G22   29.86R
WINDOM         CLOUDY    52  48  87 E14       29.93F
WORTHINGTON    CLOUDY    54  52  94 SE17      29.91F
JACKSON        CLOUDY    50  48  93 SE16      29.94F
TRACY          CLOUDY    49  48  95 SE16      29.91F FOG
SLAYTON        FOG       50  50 100 E13G18    29.90F VSB 3/4
$$
MNZ065>067-074>077-082>085-091>093-301700-
   South Central Minnesota

CITY           SKY/WX    TMP DP  RH WIND       PRES   REMARKS
MANKATO        CLOUDY    46  39  76 SE10      30.00F
NEW ULM        PTSUNNY   46  45  93 E12       29.98F
ST JAMES       CLOUDY    52  46  82 E14       29.97F
FAIRMONT       CLOUDY    52  45  76 SE12      29.96F
GLENCOE        CLOUDY    48  40  73 E12G20    30.00F
FARIBAULT      CLOUDY    46  43  87 E13G18    30.02F
OWATONNA       PTSUNNY   46  43  87 E12G17    30.02F
WASECA         CLOUDY    45  37  76 E13G18    30.02F
ALBERT LEA     CLOUDY    48  46  93 SE13      30.01S
$$
MNZ078>079-086>088-094>096-301700-
   Southeast Minnesota

CITY           SKY/WX    TMP DP  RH WIND       PRES   REMARKS
ROCHESTER      CLOUDY    45  43  93 E13       30.04F
RED WING       PTSUNNY   48  39  71 SE12G17   30.04F
STANTON        CLOUDY    47  41  81 SE7       30.03S
DODGE CENTER   CLOUDY    46  45  93 E10       30.03F
WINONA         CLOUDY    48  43  81 SE9       30.08S
AUSTIN         CLOUDY    46  45  93 SE9       30.02F
PRESTON        CLOUDY    46  42  89 SE9       30.05S
$$
ABBREVIATIONS USED IN REMARKS
   TC - TEMPERATURES IN CELSIUS
  WCI - WIND CHILL INDEX
   HX - HEAT INDEX
  VSB - VISIBILITY
$$



USA.gov is the U.S. government's official web portal to all federal, state and local government web resources and services.